Theta_e
303 304 303 303 303 303 304 304 303 303 304 304 303 303 304 304 304 304 303 301 300 299 299 300 300 300 300 300 300 301 302 302 302 303 303 305 308 308 308 307 306 305 303 303 303 304 306 308 309 309 310 312 315 315 315 316 315 315 317 317 315 316 316 317 319 318 319 319 320 319 319 320 320 321 321 322 323 322 329 332 332 335 337 336 335 339 341 344
303 303 303 303 303 303 303 303 303 303 304 304 304 304 304 304 304 304 303 301 298 298 299 299 299 300 299 299 300 300 302 302 305 308 306 305 305 306 306 304 303 302 302 304 306 307 308 310 311 311 312 312 314 315 315 315 315 314 318 316 314 316 317 317 318 318 319 319 319 319 320 320 319 321 320 321 320 326 338 339 336 340 342 342 342 342 343 342
303 303 303 303 303 303 303 303 303 304 304 304 304 304 304 304 304 304 304 303 300 299 298 299 299 299 299 299 299 300 301 301 308 312 308 305 304 305 308 306 304 301 301 303 307 310 310 311 312 312 313 313 313 315 315 314 315 314 315 315 315 316 316 317 318 318 319 319 318 319 319 319 320 320 319 321 319 325 341 342 340 345 344 344 344 344 343 341
302 302 303 303 302 303 303 302 302 303 303 303 304 304 304 303 304 304 305 304 303 300 297 298 299 298 299 298 298 300 300 303 311 313 310 308 307 309 310 308 305 302 300 303 307 310 311 311 311 311 312 314 314 314 314 314 313 313 314 314 314 315 316 316 318 319 319 319 319 318 319 319 319 321 319 321 319 321 334 338 338 342 343 344 344 343 342 343
301 302 302 302 302 302 303 303 302 303 303 303 303 303 303 303 302 302 303 304 304 301 299 298 298 298 298 298 299 299 300 307 312 309 309 310 310 311 310 308 306 303 301 304 308 309 309 310 310 311 311 314 316 314 313 314 313 313 313 313 314 315 316 316 317 319 319 319 319 318 319 319 319 320 319 319 320 319 325 331 332 331 336 340 342 343 343 344
301 301 302 302 302 302 303 303 303 303 303 303 303 302 302 302 301 301 301 302 302 302 301 299 298 297 298 298 298 298 301 308 308 305 308 310 310 311 309 308 306 303 301 304 308 308 308 308 309 311 311 313 315 315 315 314 313 312 312 312 313 314 315 316 317 318 319 318 317 318 318 319 319 318 319 319 320 321 319 326 331 329 332 338 342 344 344 342
301 300 301 301 301 301 302 302 303 303 304 304 304 304 303 302 302 301 301 301 301 302 302 301 299 297 297 298 297 299 302 304 303 306 309 309 309 309 307 307 305 303 303 304 307 307 307 307 308 310 312 313 314 314 315 315 314 312 312 311 312 313 314 315 316 317 318 318 318 319 319 318 319 318 320 320 319 321 321 322 331 338 339 341 345 344 341 338
301 301 301 302 302 302 302 302 303 303 303 304 304 304 304 304 304 303 302 301 300 301 302 302 301 298 297 297 298 300 301 302 305 308 309 307 307 306 305 305 303 303 304 305 306 306 307 307 307 309 311 312 313 314 315 315 315 314 313 312 312 313 313 315 315 316 316 317 318 318 318 318 318 319 318 319 319 320 323 323 334 344 345 344 345 343 339 336
301 301 302 302 302 302 302 302 302 303 304 304 304 304 304 305 305 305 304 303 301 301 301 302 301 299 298 298 299 300 301 305 308 308 307 306 306 305 305 304 303 303 304 305 305 305 306 307 306 307 308 309 310 313 313 314 315 315 314 313 312 312 313 314 314 315 315 315 316 316 316 317 318 319 318 318 319 319 322 325 335 345 345 346 345 341 337 332
300 300 301 301 301 302 302 302 302 303 304 305 305 305 304 304 304 305 305 305 304 302 302 302 301 299 298 299 299 300 302 307 308 308 307 306 306 306 305 305 304 303 304 305 305 305 306 306 306 305 307 308 309 311 312 313 314 313 314 314 313 313 314 314 313 314 315 315 315 315 315 317 317 318 317 319 319 319 323 326 334 344 345 346 343 337 334 330
301 301 302 302 301 302 302 303 303 304 304 305 305 305 305 304 304 304 304 305 304 303 303 303 302 300 300 300 299 301 302 305 306 307 306 305 307 306 305 305 305 305 305 304 305 305 305 305 305 306 307 308 308 310 311 312 312 312 312 313 314 314 314 314 312 313 314 315 315 315 315 315 317 317 317 319 319 319 327 332 332 340 345 345 340 337 334 332
301 301 302 302 302 303 303 304 304 304 304 305 305 305 305 305 305 304 304 304 303 303 303 303 302 301 300 300 300 301 301 301 303 304 305 305 305 305 305 305 305 306 306 306 305 305 305 305 305 305 306 306 307 309 311 310 311 312 312 314 314 314 314 313 313 313 313 314 315 315 314 314 315 316 317 319 319 317 327 338 338 338 341 342 341 339 338 337
301 302 302 303 304 304 304 304 305 305 304 305 305 305 306 305 305 304 304 304 303 302 302 302 301 301 300 300 302 301 301 301 300 302 304 305 305 305 305 305 306 306 306 306 305 304 305 305 304 304 304 305 306 308 309 309 310 311 313 314 315 314 314 314 313 312 312 313 315 315 313 314 315 316 317 318 319 317 319 331 340 342 340 341 341 339 340 341
302 303 303 303 304 304 304 305 305 305 305 305 305 305 305 305 305 304 304 303 303 302 302 301 301 302 302 303 302 304 304 303 303 303 303 304 305 305 304 304 305 306 305 305 304 303 304 304 304 304 304 305 305 306 308 309 311 312 314 314 315 315 314 313 313 313 312 313 315 315 312 313 316 316 317 317 318 318 317 319 332 343 342 341 341 339 341 343
302 303 304 304 304 304 304 304 304 304 304 304 304 304 305 305 304 304 304 304 303 302 301 301 302 302 303 303 303 305 306 306 306 306 306 305 304 304 304 305 306 306 305 305 305 303 303 304 304 304 304 305 305 306 308 310 311 312 314 315 314 314 314 313 313 312 312 313 314 315 313 313 315 316 317 318 317 318 319 316 322 338 343 341 342 341 341 343
303 304 304 305 304 304 304 304 303 303 303 303 303 304 304 304 304 305 305 304 302 301 301 302 303 302 303 304 304 305 306 306 306 306 307 306 305 305 304 305 306 306 305 305 305 304 303 303 303 304 304 305 305 306 309 311 312 313 314 316 315 314 313 313 313 312 311 313 314 313 313 314 316 317 317 318 319 317 319 317 318 328 339 342 343 343 343 343
303 303 304 304 303 303 304 304 303 302 302 303 303 305 305 305 305 305 305 303 302 303 303 304 304 303 304 305 304 305 306 307 306 306 306 305 305 305 305 306 305 304 304 304 305 304 304 303 304 305 305 305 305 307 309 310 311 312 313 314 315 314 313 313 313 313 312 312 313 313 313 314 316 316 316 317 318 317 318 317 318 322 329 339 343 345 344 344
302 303 303 303 303 303 303 303 302 302 303 304 305 306 307 306 306 305 304 303 304 305 305 305 304 306 307 305 305 307 307 307 306 306 306 305 305 305 305 305 304 304 304 304 304 304 304 303 304 306 306 305 304 306 308 308 308 310 312 314 315 314 314 313 313 313 313 312 312 313 313 313 316 316 315 317 318 318 318 317 319 321 326 336 344 346 345 345
302 303 303 303 304 303 303 302 302 303 304 305 305 306 306 306 306 306 304 304 305 306 307 306 305 308 308 305 306 307 307 307 306 306 306 306 305 305 305 304 304 304 304 304 304 304 303 303 304 305 305 305 304 304 306 306 307 309 311 313 315 314 314 313 313 313 313 312 311 312 313 313 315 316 315 315 317 317 318 317 318 321 331 340 345 347 346 345
303 303 303 303 304 303 302 303 303 304 304 305 305 306 305 306 306 306 305 305 305 306 306 305 305 306 306 305 305 306 307 306 306 306 306 305 305 305 305 304 303 304 303 304 304 304 303 304 305 304 304 304 304 303 304 305 307 308 308 310 311 312 314 314 313 313 313 312 312 312 313 313 313 315 315 315 315 315 315 317 316 319 333 344 346 346 346 344
302 303 303 303 304 303 303 304 304 304 305 305 305 305 305 306 306 305 305 304 305 305 305 305 305 305 305 305 305 305 306 306 306 306 306 305 305 304 305 304 303 304 303 303 304 304 304 304 304 303 303 304 304 304 304 305 306 306 307 307 309 310 312 313 313 314 313 312 312 312 313 313 314 314 315 315 315 315 314 315 316 316 328 343 346 345 346 344
302 303 303 304 304 303 303 304 304 304 305 305 305 305 305 305 305 305 304 304 304 304 304 304 304 305 305 305 305 306 306 305 305 306 306 306 304 304 304 303 304 304 303 303 303 304 304 304 303 303 304 303 304 304 304 305 305 306 306 306 307 308 310 311 312 312 314 313 313 313 312 312 314 314 315 315 315 315 315 315 317 316 321 336 345 345 346 346
301 302 303 303 303 303 303 304 304 304 305 305 305 305 305 305 305 305 304 304 305 304 305 305 305 305 305 305 306 305 305 305 305 306 306 306 304 304 303 303 303 304 303 303 304 304 304 303 303 303 304 304 304 304 304 304 305 305 306 306 306 307 309 311 312 312 313 313 314 313 313 313 314 314 315 315 314 315 316 315 317 316 317 327 339 345 346 347
300 302 303 303 303 303 304 304 304 304 305 305 305 305 305 305 305 304 304 304 304 305 306 306 305 305 305 306 306 305 305 306 306 306 306 306 305 304 303 303 303 303 303 303 303 303 303 303 303 303 304 305 304 304 304 304 304 304 305 306 306 306 307 310 311 312 312 312 313 313 313 313 314 314 315 314 314 316 315 315 316 317 317 318 327 342 347 346
300 302 303 303 303 303 305 305 304 305 305 305 305 305 305 305 304 304 304 304 304 305 306 307 306 306 306 306 306 306 306 306 306 306 306 306 306 305 304 304 304 304 303 303 303 303 303 303 303 303 304 304 304 304 304 304 304 304 304 305 306 306 307 308 309 311 312 313 313 313 312 314 316 314 314 315 315 316 316 316 316 316 318 315 320 337 347 346
300 302 303 303 303 304 305 305 305 305 305 305 305 305 305 304 304 304 304 306 308 308 307 307 306 306 306 305 305 305 306 305 306 306 306 306 306 305 305 304 304 304 303 303 303 303 303 303 303 303 303 303 303 304 304 304 304 303 304 305 306 307 307 307 308 310 313 312 313 312 312 316 320 315 314 315 315 316 316 316 316 315 316 316 316 328 342 346
300 303 303 303 303 304 305 306 305 305 305 305 304 305 304 304 304 304 305 308 311 310 308 307 306 305 305 305 306 306 307 307 305 305 305 305 306 305 305 305 304 304 303 303 303 303 303 304 304 303 303 303 303 303 303 304 303 303 304 305 306 307 307 307 307 308 310 311 312 312 311 314 316 314 315 316 314 315 316 316 317 315 315 317 315 322 335 344
301 303 303 303 304 304 305 306 306 305 305 305 305 305 305 305 304 304 307 311 312 310 309 309 307 306 306 307 307 307 307 307 306 306 305 305 305 305 305 305 304 304 304 304 303 303 303 303 304 303 303 303 303 303 303 304 303 304 304 306 306 307 308 308 307 307 308 311 312 312 312 312 313 315 316 315 314 315 316 316 316 316 315 316 316 319 329 340
302 304 304 303 304 305 305 306 306 305 305 305 305 305 305 305 304 305 309 311 310 310 311 311 309 308 307 307 307 307 307 306 306 306 306 305 305 305 305 305 304 305 306 305 304 303 303 303 303 303 303 303 303 304 304 304 303 304 305 305 305 306 307 308 308 308 308 311 312 311 312 312 313 317 317 315 315 315 315 316 316 316 315 316 316 318 328 340
302 304 304 304 304 305 305 306 306 305 306 305 305 305 305 305 306 308 312 312 310 310 310 310 310 308 308 308 308 307 307 307 306 306 305 305 305 304 304 304 304 304 305 305 304 303 303 304 303 303 303 303 304 304 304 304 304 304 305 304 304 305 306 308 310 309 309 311 311 311 312 313 314 317 315 315 315 315 316 316 316 316 315 316 316 319 331 342
303 305 306 305 305 306 306 306 306 306 305 305 305 305 305 306 307 310 312 310 310 311 309 310 311 309 308 308 308 308 307 307 306 305 305 305 305 305 304 305 304 303 303 303 304 303 303 303 303 303 303 304 305 305 305 305 305 305 305 304 306 306 307 308 310 311 311 311 310 310 311 312 314 315 314 316 316 316 317 316 316 316 315 315 316 320 332 342
304 306 306 306 306 306 307 307 307 306 305 305 305 305 306 309 310 311 311 310 311 311 309 309 311 310 308 307 307 307 307 308 306 305 305 306 306 305 305 305 304 302 302 303 303 303 303 302 302 302 303 304 305 305 305 305 306 305 305 305 306 308 310 311 311 311 311 310 310 311 312 313 314 315 316 317 317 316 317 316 316 316 315 316 316 323 335 342
303 307 307 306 307 307 307 307 306 306 305 305 305 305 307 311 312 311 311 311 311 310 309 309 310 309 307 307 307 307 308 308 306 305 305 305 306 306 305 304 303 302 303 304 302 301 303 303 302 301 302 303 304 305 304 305 305 305 305 305 306 308 311 312 311 311 310 310 310 310 312 314 313 315 318 317 316 317 315 316 316 316 316 316 317 326 338 343
303 307 307 307 308 307 307 307 307 307 306 305 305 306 308 310 311 310 311 312 311 310 310 309 309 308 307 307 308 308 308 307 305 306 306 305 305 306 305 304 304 303 303 305 304 303 303 304 304 302 302 303 304 304 305 305 305 305 305 305 306 307 310 312 311 310 310 310 311 311 314 317 316 319 322 317 316 315 315 317 316 316 316 317 319 328 339 344
303 307 308 308 308 308 308 308 307 307 306 306 306 307 310 311 310 310 311 311 310 310 309 308 308 307 307 309 309 308 307 308 306 307 308 306 305 306 306 304 304 303 303 304 305 305 303 303 304 303 303 303 303 303 304 305 306 306 306 306 307 306 309 312 313 314 316 316 314 315 317 319 319 323 323 317 317 316 315 317 316 316 317 318 325 334 340 344
304 307 308 309 309 309 308 308 307 307 305 306 307 308 310 310 310 312 312 310 309 309 308 308 308 307 308 310 310 307 307 308 308 307 307 305 304 305 304 304 304 303 303 303 305 307 305 305 306 306 305 304 304 304 304 305 306 307 306 307 308 307 308 311 314 319 322 318 318 318 317 317 317 319 320 316 317 317 316 317 316 315 317 322 331 337 341 343
305 306 308 309 309 309 309 308 307 306 305 306 309 310 310 308 310 312 311 310 309 307 307 309 309 308 308 308 308 307 307 307 307 307 307 305 305 305 304 303 304 303 302 303 305 308 307 306 306 306 306 305 304 305 304 304 306 308 308 308 309 309 309 310 313 317 319 317 320 320 316 315 316 321 323 317 316 318 316 317 317 316 318 327 335 339 341 343
306 307 309 310 309 309 308 308 307 306 306 306 308 309 310 309 309 310 310 310 310 307 307 309 309 308 309 308 307 307 307 308 308 307 307 305 306 306 304 304 304 303 303 302 304 308 307 305 306 306 305 305 305 306 305 305 305 308 309 309 313 315 312 311 312 314 316 317 318 318 317 315 314 320 323 317 315 318 317 316 317 317 321 328 336 340 341 343
308 309 311 310 310 309 308 307 306 306 307 308 309 310 311 310 309 309 310 310 309 307 307 309 309 308 309 308 307 307 308 309 308 306 306 305 307 306 304 304 304 304 304 302 304 309 309 307 308 308 308 307 307 307 307 307 306 306 307 309 313 314 312 312 313 312 315 318 318 318 318 318 317 319 320 317 317 318 317 318 317 318 322 328 335 340 341 343
308 310 311 310 310 309 307 306 306 306 308 309 310 310 310 310 309 309 310 310 309 308 308 308 308 309 309 309 308 309 310 310 308 307 305 305 306 305 304 304 303 304 304 303 306 309 309 308 308 309 310 309 308 308 307 308 308 308 308 309 311 312 311 313 314 312 314 319 322 320 319 323 326 323 319 317 318 317 317 319 319 319 324 329 335 339 341 343
307 311 311 309 309 308 307 307 307 307 308 308 309 309 309 309 311 311 310 310 310 310 309 308 308 309 310 309 309 309 310 310 309 308 306 304 305 306 305 305 304 304 304 305 307 309 309 308 307 310 311 310 309 309 307 309 310 310 310 311 311 312 312 313 316 317 314 316 323 325 324 328 328 323 320 317 317 319 318 318 320 321 324 331 336 338 341 342
306 310 310 308 309 308 307 309 308 307 308 309 310 311 311 310 311 311 310 311 311 310 308 307 308 309 309 309 309 308 310 311 310 309 308 306 306 306 306 305 304 305 306 305 306 307 308 309 309 310 311 310 311 311 310 311 312 311 311 312 312 313 313 313 317 321 318 315 321 323 323 329 331 327 324 320 320 320 316 318 321 321 325 333 336 338 341 342
305 308 309 308 309 308 308 310 311 310 309 310 310 311 311 310 311 311 312 312 312 310 308 307 307 308 309 309 308 308 310 311 311 310 310 309 307 307 307 307 305 305 306 306 307 308 308 309 310 310 310 310 311 313 314 315 316 314 313 312 312 312 313 313 314 316 317 315 318 318 320 330 340 337 329 323 322 320 316 318 320 321 327 334 336 338 341 342
304 307 308 309 309 308 309 311 312 311 310 310 310 310 310 310 311 312 312 312 312 310 308 307 306 307 309 309 309 309 310 311 310 310 311 311 310 309 310 309 307 305 306 307 309 310 310 311 311 311 310 309 310 312 314 315 315 315 314 312 312 312 312 314 314 314 317 318 317 317 320 331 342 339 331 326 322 319 318 319 319 322 328 333 336 338 341 342
305 308 309 309 309 308 309 310 310 310 310 310 309 309 310 310 311 312 312 311 311 310 309 308 307 307 307 308 310 310 310 311 311 310 311 312 311 310 310 310 310 308 308 309 310 310 312 313 312 312 313 311 312 314 314 314 313 313 313 312 313 313 312 314 316 316 319 320 319 318 320 327 335 334 328 325 324 321 321 320 321 325 330 334 337 338 341 341
305 308 307 308 308 308 309 310 310 309 308 308 308 309 310 311 311 310 312 311 311 310 309 309 307 307 308 309 310 310 310 311 311 311 312 311 311 311 310 310 311 310 310 311 311 311 314 316 314 313 314 313 313 313 314 315 314 313 313 313 313 314 313 314 316 317 319 321 322 324 322 322 329 334 332 327 324 323 325 324 325 329 333 336 337 338 340 341
305 306 304 304 305 306 308 308 306 304 304 305 308 310 311 311 310 310 312 313 312 309 310 309 307 307 309 310 309 310 311 312 311 312 312 312 312 311 311 311 311 311 314 313 312 315 317 316 315 315 315 314 313 313 313 315 315 314 314 314 314 315 315 314 316 318 320 320 324 330 329 326 330 338 339 335 328 324 326 327 327 331 335 336 338 339 340 340
302 303 302 301 302 305 306 304 302 302 303 305 309 311 311 310 310 310 311 312 312 310 310 310 309 309 310 310 310 310 310 311 312 312 313 314 314 314 315 314 312 313 314 312 314 320 318 316 316 316 315 315 314 314 314 315 316 316 316 317 316 317 317 317 317 318 320 322 325 331 333 333 336 338 339 341 338 330 325 326 329 333 336 336 337 338 339 340
300 300 300 299 300 302 302 301 301 302 304 306 309 311 310 309 309 309 309 312 313 311 310 311 312 312 311 310 310 310 311 312 313 313 314 315 315 316 318 317 313 312 312 313 317 319 317 319 318 315 315 317 315 315 315 315 315 315 316 317 318 318 318 317 317 317 319 321 325 331 337 338 338 336 335 336 334 329 325 327 332 334 336 337 338 339 339 339
299 299 299 299 299 299 300 301 302 303 305 306 308 308 307 308 308 308 308 311 314 313 311 312 314 313 312 311 310 311 312 312 312 313 314 315 315 316 317 316 314 312 313 317 319 317 316 318 318 315 317 319 316 316 316 316 316 316 316 317 316 317 319 318 319 320 320 322 326 332 338 339 336 333 334 331 327 328 330 332 333 336 337 338 338 338 339 340
299 299 298 299 299 300 301 302 301 303 306 306 305 306 306 306 307 306 307 311 314 314 313 313 314 313 313 313 312 312 313 312 312 313 312 313 314 315 315 316 314 314 316 318 320 319 317 317 318 317 318 320 319 317 317 319 319 317 318 318 316 318 321 319 320 322 323 324 329 334 336 338 335 332 334 333 331 333 336 334 334 336 338 338 339 339 339 340
300 299 298 298 299 300 301 300 300 303 306 304 303 304 304 305 305 305 308 310 311 312 313 313 314 314 314 314 313 313 313 313 314 314 313 313 313 312 314 314 313 314 316 317 319 319 318 318 319 318 319 321 319 316 319 323 321 319 321 322 320 320 321 319 321 326 327 328 332 337 338 339 336 333 336 337 336 336 336 335 335 337 338 338 339 339 339 339
Wind_Speed
14 14 14 14 15 14 15 15 16 16 16 16 16 16 16 17 17 17 16 15 14 14 14 14 14 14 14 15 16 15 14 9 6 7 6 6 8 7 3 4 7 7 8 8 6 6 9 9 8 6 8 12 12 14 18 17 15 9 3 5 7 7 8 7 8 7 4 4 6 14 21 11 11 21 15 12 15 16 9 20 23 18 18 28 31 36 43 40
13 13 13 13 14 15 14 15 16 16 17 17 17 16 17 17 17 17 17 16 15 14 14 14 14 13 13 14 16 16 15 12 9 6 4 5 3 3 3 6 7 7 7 6 5 6 9 9 8 5 3 8 9 11 13 14 16 10 3 5 9 7 8 10 11 10 8 8 9 16 23 16 15 22 15 9 12 6 8 13 19 19 16 23 32 40 43 43
14 15 14 13 14 14 14 14 15 16 17 17 17 17 17 17 17 18 17 16 15 15 15 14 14 12 12 13 15 16 15 13 7 2 2 3 4 3 5 9 10 9 6 4 4 5 6 6 5 2 2 5 9 11 10 11 13 12 8 6 9 7 6 13 16 15 16 14 10 16 25 21 21 26 15 5 8 6 6 8 15 23 24 28 37 42 42 43
15 15 15 15 15 15 16 15 15 16 16 17 17 17 17 17 17 17 17 17 16 16 15 15 14 13 12 13 15 15 15 13 2 3 3 1 1 5 8 10 10 9 7 4 3 3 3 3 2 1 2 4 7 10 10 12 12 8 10 8 7 9 7 13 18 19 21 18 15 17 21 23 26 26 17 7 7 4 7 13 16 24 33 39 44 44 41 43
15 15 15 16 16 15 16 16 16 16 16 16 16 16 16 16 16 16 17 17 16 17 16 16 15 14 13 13 14 14 13 8 2 1 4 4 6 8 9 10 9 9 7 2 2 2 1 1 1 2 2 2 4 7 8 15 13 4 8 13 10 10 7 12 20 22 22 21 19 16 16 24 28 20 16 12 6 5 6 14 23 29 37 44 47 45 42 43
16 16 16 16 16 16 16 16 16 16 16 16 16 16 16 16 16 16 16 15 15 16 17 18 16 15 14 13 15 14 8 2 3 7 7 5 6 8 10 12 10 9 6 1 2 1 3 4 4 3 3 1 4 5 7 14 15 6 8 14 15 14 7 11 20 21 24 22 17 16 20 28 25 16 19 17 14 16 12 11 23 33 39 45 47 45 43 42
16 17 17 17 17 17 17 17 17 17 17 16 16 16 16 15 15 15 16 15 15 15 16 18 18 17 16 15 14 11 7 8 9 8 5 4 7 10 11 12 9 6 3 1 2 4 8 8 6 4 3 2 4 5 8 13 14 10 8 10 14 17 14 15 18 18 23 24 24 26 24 23 21 18 21 15 18 25 13 8 19 34 41 47 47 46 45 43
17 17 17 18 18 18 18 18 18 18 18 17 16 16 15 15 13 13 14 15 15 14 14 15 17 17 17 16 11 9 11 10 7 4 4 6 9 11 9 7 5 4 1 1 1 6 9 8 9 7 1 2 4 6 8 10 10 10 9 10 12 14 18 21 23 22 22 23 26 26 21 23 30 28 21 14 19 24 6 3 16 33 39 46 49 49 48 44
18 18 18 18 18 19 19 19 19 18 18 17 17 17 16 16 14 14 14 14 13 13 14 14 15 15 14 13 9 8 8 2 1 1 2 3 7 9 9 7 4 3 2 1 3 5 7 7 10 11 5 6 7 7 8 6 5 6 6 10 11 10 14 20 24 28 29 26 21 15 15 25 38 30 19 24 31 27 10 5 20 35 38 42 47 48 47 42
19 19 19 19 19 19 20 19 19 19 18 18 18 18 18 17 17 17 16 15 14 12 13 13 14 13 10 9 5 4 5 5 4 5 4 2 3 5 7 9 6 3 3 4 3 3 6 7 11 13 8 8 7 6 7 4 4 10 11 11 9 11 16 18 21 28 30 29 25 16 12 21 31 20 12 28 37 26 13 14 22 37 40 41 46 47 45 41
20 20 19 20 20 20 20 20 20 19 19 18 18 18 18 18 18 18 17 16 15 14 13 12 12 12 9 6 4 4 6 6 6 8 7 7 8 7 5 5 5 5 7 7 6 4 7 7 10 11 4 6 9 8 8 6 9 14 13 11 9 12 17 17 16 24 23 21 29 23 13 18 21 13 16 33 37 22 17 25 25 36 40 40 44 45 43 43
20 20 20 20 21 21 21 21 21 20 21 20 20 19 18 18 18 18 18 16 15 14 13 13 11 11 10 8 13 9 5 9 11 14 14 12 12 10 8 8 6 6 8 10 9 7 7 8 10 9 6 8 8 6 8 12 13 13 10 5 7 9 11 14 13 18 16 15 29 23 10 14 14 15 28 40 39 24 14 26 28 35 41 41 42 42 41 43
20 20 20 21 21 21 22 22 22 22 22 22 22 21 19 18 18 18 17 14 14 13 13 12 10 10 8 12 17 12 10 14 15 18 19 17 17 14 11 11 10 10 10 12 13 10 9 8 8 10 11 9 5 6 12 15 13 9 5 1 4 6 8 12 11 15 14 13 24 19 8 13 15 22 35 42 38 25 14 18 28 34 38 41 42 41 40 40
20 20 20 21 22 23 24 24 24 24 24 24 22 20 18 17 18 17 15 14 13 12 11 9 8 7 7 16 18 8 5 9 9 10 13 18 20 19 16 13 10 9 8 9 10 8 8 7 7 10 10 7 7 10 12 10 7 3 3 2 2 5 6 7 8 10 11 13 21 16 9 14 15 23 36 40 34 25 20 16 26 35 34 38 42 42 41 42
21 21 21 22 23 24 25 26 26 25 25 23 20 18 17 16 16 14 13 13 11 9 8 7 8 6 10 20 13 2 1 1 1 2 2 6 12 16 16 11 8 8 8 8 7 6 6 6 7 8 8 7 8 8 5 4 3 1 3 4 4 6 4 5 8 10 9 11 18 16 9 14 14 22 35 33 27 27 27 20 20 35 35 33 38 42 42 43
21 22 22 23 25 26 27 27 26 24 23 20 18 17 15 14 12 12 12 11 7 5 3 4 6 6 8 11 3 3 3 3 3 4 3 3 4 7 8 7 7 8 8 7 7 7 6 7 8 7 7 6 3 2 3 4 3 1 3 5 4 5 3 4 8 9 10 8 13 16 11 10 9 17 29 27 26 28 27 27 17 29 36 34 36 39 40 40
22 23 23 25 27 27 27 25 24 22 19 18 17 13 10 7 7 8 8 5 3 2 0 2 4 6 9 7 2 3 6 6 7 3 2 3 3 2 4 7 6 5 6 7 8 8 7 7 5 5 4 1 1 2 2 3 4 3 2 2 3 3 4 5 6 7 10 9 12 17 14 9 5 8 20 25 31 30 24 30 23 19 30 36 38 37 37 38
23 23 24 26 27 27 25 23 21 18 16 17 14 11 11 6 5 6 3 3 3 1 2 3 1 3 7 5 3 6 10 10 8 3 4 2 2 2 4 7 7 6 6 5 6 8 9 6 3 2 2 2 3 3 4 6 5 4 2 0 2 4 6 7 6 5 8 11 14 15 15 14 8 5 13 24 32 34 28 31 30 17 26 35 38 38 38 41
22 23 25 26 27 26 22 19 17 14 15 16 12 7 9 9 8 7 3 1 3 2 3 7 8 4 6 5 7 12 13 11 10 7 7 7 7 7 7 7 8 8 3 2 2 6 8 3 2 3 3 5 6 7 9 7 2 2 2 2 4 5 8 8 7 7 7 9 12 15 15 13 11 9 10 17 25 29 30 31 29 20 28 35 37 38 40 42
22 24 24 26 26 22 18 15 12 13 15 18 14 6 6 11 7 4 6 12 15 15 17 17 17 18 20 20 20 16 13 11 12 11 9 9 10 12 12 10 7 5 2 2 1 4 8 4 3 6 8 9 8 7 8 5 4 5 5 4 6 6 7 7 7 10 10 9 10 14 15 11 13 14 13 19 18 16 20 23 24 21 28 35 36 38 40 42
23 23 24 25 24 19 14 11 10 12 14 17 18 12 10 12 6 5 14 21 24 23 25 27 25 28 30 28 26 20 17 18 20 17 12 11 12 12 12 11 5 2 4 4 2 4 4 5 8 12 11 9 6 4 4 4 5 7 6 5 7 6 6 8 8 9 10 10 9 10 13 13 14 14 14 20 17 12 15 17 22 23 28 34 37 39 41 41
23 23 24 24 21 17 11 8 8 9 10 13 15 14 11 10 6 9 15 18 27 26 22 26 27 30 32 31 28 21 17 19 23 24 16 12 14 12 10 10 5 3 4 3 3 3 2 6 14 13 8 5 5 5 4 5 6 7 6 5 7 6 5 9 11 11 9 10 9 7 10 13 14 13 13 17 18 20 24 21 25 28 25 33 37 38 40 38
24 23 24 24 18 14 9 7 8 7 8 11 13 13 9 8 9 15 16 13 23 25 16 16 20 26 29 27 23 18 17 15 17 21 16 11 15 16 12 8 5 5 5 4 5 3 4 8 8 5 4 5 6 7 6 6 6 6 5 5 7 7 5 6 8 11 10 8 9 7 7 7 10 12 12 18 24 28 33 29 28 32 30 33 39 39 39 39
24 23 23 22 15 12 10 7 6 4 6 10 12 10 8 9 12 17 17 7 10 14 8 5 7 13 16 14 11 13 17 15 13 14 11 12 16 17 13 9 7 5 5 6 7 7 10 9 3 2 5 8 8 8 7 6 5 6 7 7 6 8 9 7 7 10 10 9 9 8 6 5 9 14 13 15 20 23 32 31 25 29 34 33 38 43 42 43
24 24 22 19 13 11 9 7 4 3 5 8 10 10 10 11 14 17 13 4 5 7 4 3 1 3 4 4 5 9 11 12 15 15 11 14 16 12 11 12 8 5 6 9 8 7 11 13 8 5 6 8 9 9 8 6 5 6 8 8 8 10 10 10 12 10 7 7 7 7 8 7 7 14 14 12 12 14 22 25 22 28 31 26 30 39 41 43
24 24 20 15 11 10 8 8 5 2 3 5 8 10 11 13 15 16 9 1 3 4 1 0 2 1 1 2 5 8 6 4 9 15 15 16 17 12 8 8 7 5 6 6 5 4 7 10 10 9 9 9 9 8 8 8 5 5 5 7 9 11 11 13 15 10 3 5 7 5 8 6 4 9 13 12 13 15 16 17 21 28 30 25 25 33 38 41
24 23 18 11 9 10 7 8 6 2 2 7 9 9 12 12 13 13 5 2 2 1 1 1 3 2 2 3 2 4 4 6 7 11 15 15 16 14 8 5 5 5 5 3 4 4 4 7 7 9 10 9 7 6 8 9 7 6 5 6 9 11 12 15 15 9 4 6 10 10 9 6 6 8 10 12 15 16 16 18 20 25 30 28 25 30 38 44
23 21 14 8 8 8 6 8 7 6 6 9 11 11 12 13 13 9 2 3 2 1 1 1 3 3 3 4 5 2 6 12 9 7 10 9 10 10 6 6 6 4 4 3 4 2 2 5 6 7 8 6 6 6 7 8 7 6 6 7 9 10 11 13 12 8 6 5 9 12 9 6 8 6 7 13 17 18 20 21 20 22 29 30 27 30 38 44
21 18 10 6 7 7 6 7 8 9 9 10 12 12 13 14 11 3 4 2 3 1 0 1 2 3 3 5 7 7 8 8 6 6 5 3 5 6 4 6 7 2 3 4 3 4 2 6 6 5 5 4 6 6 6 6 6 6 8 8 8 9 10 10 8 6 6 5 9 14 9 5 6 4 6 12 16 19 19 18 17 20 29 33 31 32 38 43
18 14 8 5 6 6 6 7 9 11 12 13 14 14 13 10 3 3 3 1 1 1 1 2 2 3 6 6 6 7 6 7 7 7 6 6 8 5 2 4 5 0 1 3 7 10 10 13 11 4 4 5 5 5 5 5 4 5 7 7 7 9 8 8 6 4 4 7 12 18 13 6 5 5 8 11 12 14 14 13 13 15 25 33 33 32 38 43
15 9 6 4 4 5 6 6 9 11 12 13 14 14 10 4 2 4 2 1 1 3 4 3 3 4 6 6 7 7 4 4 4 3 3 6 7 3 2 2 4 1 3 5 7 9 10 13 10 6 9 8 5 4 4 3 3 4 4 5 4 6 5 5 5 5 5 9 13 18 15 9 8 7 8 9 10 13 14 14 15 13 20 31 33 35 41 45
13 7 4 4 3 5 6 6 7 9 11 11 12 12 5 2 3 1 1 3 3 2 2 2 3 4 5 6 8 8 4 2 4 4 4 3 3 2 2 3 4 2 3 5 3 4 6 8 7 6 10 8 4 3 3 3 2 3 4 4 4 4 3 4 4 5 7 10 11 13 10 9 11 7 7 10 12 16 16 16 18 18 23 30 33 37 43 46
11 6 4 4 3 4 5 6 7 8 9 9 10 8 2 3 2 3 3 3 2 1 1 3 4 6 7 7 6 5 2 2 4 4 4 3 1 3 3 4 4 3 3 4 2 2 3 6 6 7 6 7 7 4 3 3 4 6 5 5 6 5 5 6 5 6 9 9 10 11 7 7 8 5 9 13 13 17 20 23 27 31 33 33 34 39 44 46
10 6 7 6 3 4 5 6 8 7 7 9 7 4 3 2 2 4 3 2 3 3 2 3 5 8 7 5 4 1 1 2 3 3 2 2 1 3 3 5 7 4 1 2 3 4 4 5 5 6 5 8 9 7 6 4 3 6 6 6 7 6 4 5 6 7 6 4 9 11 7 5 5 5 10 13 12 18 25 32 36 39 39 36 35 39 42 45
9 7 8 7 5 5 6 7 9 7 6 7 4 3 2 1 2 3 2 3 3 4 4 5 7 6 5 4 2 2 2 3 3 3 1 2 3 3 3 5 8 7 3 3 2 4 5 6 6 8 8 10 10 10 10 6 4 5 5 5 8 8 6 3 4 6 4 2 7 7 5 6 5 5 9 12 15 19 24 29 33 34 34 32 32 36 40 43
9 7 7 7 5 5 7 8 7 5 4 3 3 2 1 2 3 1 1 3 3 4 6 7 5 3 3 2 2 1 3 3 2 2 1 4 5 5 5 4 7 9 6 4 2 2 4 6 4 6 8 9 11 13 13 11 6 4 5 8 9 9 7 4 5 3 5 5 6 4 5 6 5 6 9 16 19 20 19 21 23 25 27 28 30 34 39 43
7 5 8 8 5 5 7 9 5 2 2 2 3 2 2 3 4 3 3 4 3 2 4 5 1 2 1 2 2 1 2 1 2 1 2 3 3 5 8 6 8 12 11 9 4 2 4 5 4 6 8 11 14 15 15 17 13 4 5 8 7 8 8 4 4 4 4 6 5 4 6 6 5 6 7 15 21 21 19 17 17 18 22 26 30 36 41 46
8 5 6 5 3 5 7 6 3 3 1 2 1 4 3 3 5 5 5 4 2 1 1 3 1 2 1 1 2 3 2 1 3 2 2 3 3 6 8 7 11 15 17 15 6 2 4 4 6 7 9 12 12 10 10 17 20 13 6 4 2 4 6 4 4 6 4 5 4 4 6 7 7 6 6 13 18 18 16 15 15 15 17 23 31 37 42 45
9 6 2 2 4 5 5 4 4 3 0 1 1 3 3 4 8 12 11 5 1 1 2 3 2 1 2 2 2 3 2 3 4 1 2 2 2 5 8 7 10 15 19 18 7 1 3 2 3 3 4 6 5 7 7 10 17 16 11 6 2 3 3 4 6 7 5 4 3 5 5 5 7 7 9 13 15 15 13 11 13 14 18 26 33 36 39 42
9 5 2 3 4 4 4 4 4 3 1 1 2 3 4 4 9 16 14 7 4 3 2 2 3 2 3 3 4 4 2 4 4 2 2 4 3 4 7 9 7 10 15 13 5 2 3 1 4 1 1 3 3 7 9 8 9 10 9 7 5 4 3 3 5 6 5 3 3 5 5 5 5 6 11 15 15 15 13 12 12 13 22 33 37 38 41 43
10 4 1 4 5 5 4 3 3 2 1 2 3 3 5 5 7 12 11 9 8 7 5 4 4 3 3 3 3 3 2 3 3 3 3 4 4 3 8 13 9 8 9 6 3 2 3 2 5 4 1 2 3 5 10 9 7 7 7 8 6 5 4 3 4 4 4 5 4 5 4 7 5 5 9 14 15 14 13 14 11 14 26 35 39 43 46 46
11 4 1 5 8 8 4 2 3 3 2 3 5 6 8 8 8 11 8 6 6 5 5 5 4 4 4 3 3 3 3 3 3 3 3 3 6 5 6 12 16 16 11 4 5 7 5 2 5 7 4 3 3 4 8 9 7 6 6 6 5 5 5 4 4 3 3 5 4 2 3 7 6 7 9 11 12 12 14 16 13 16 29 36 38 43 46 47
12 6 1 7 11 8 4 2 3 1 3 8 10 10 13 10 8 9 6 2 2 1 2 3 3 4 4 4 3 2 3 3 3 4 3 4 5 3 6 4 14 18 10 3 4 8 6 2 4 6 3 2 5 5 5 5 4 3 5 5 5 6 6 5 4 3 4 6 6 3 3 7 7 5 7 9 9 10 14 19 19 18 27 36 39 41 42 44
13 7 2 6 12 8 2 1 3 3 5 10 11 13 15 10 8 9 5 2 2 2 2 3 3 3 4 4 4 4 3 3 3 3 4 4 3 7 13 7 4 8 9 7 7 9 6 3 2 2 2 2 3 4 4 4 3 2 4 6 7 8 7 6 5 3 4 6 5 4 5 7 6 5 3 5 8 9 12 21 25 23 26 34 38 40 41 43
11 5 4 3 13 12 7 5 4 4 7 10 10 12 12 7 10 13 7 4 4 3 2 2 3 4 6 5 4 6 6 5 4 3 3 3 4 9 10 8 6 2 10 17 17 12 5 3 2 1 2 3 3 3 2 3 4 3 4 8 10 8 7 6 4 3 4 5 4 5 6 7 6 7 4 4 9 11 10 16 24 28 32 37 39 40 42 44
7 2 4 2 8 11 14 14 9 5 5 7 7 8 7 7 11 13 7 4 4 5 5 3 2 3 5 4 4 6 5 5 5 3 5 4 3 5 11 15 13 6 12 21 22 13 2 2 3 3 3 3 3 3 3 0 4 5 7 8 7 7 8 7 4 4 4 5 6 6 5 7 8 7 5 4 8 11 11 10 15 24 33 39 41 42 44 46
5 1 3 5 4 6 9 11 7 5 6 6 3 4 8 9 10 9 5 3 2 2 3 3 2 2 4 5 4 4 4 3 4 4 6 6 4 6 15 19 11 7 14 18 19 9 1 1 3 3 3 3 4 6 6 4 4 5 5 3 4 7 8 7 6 6 4 3 6 7 4 4 7 6 6 5 6 10 12 11 14 23 33 39 42 44 46 46
5 1 2 4 4 2 3 7 10 11 12 9 3 3 8 11 10 10 8 4 1 2 2 2 3 4 6 5 3 3 4 3 3 3 4 5 4 5 9 9 1 10 10 7 7 4 2 1 3 2 3 6 5 6 6 6 5 5 4 3 4 6 7 7 8 8 5 4 7 8 7 4 7 7 6 6 7 8 12 18 24 30 34 37 39 41 42 42
7 3 3 6 5 5 9 15 17 14 11 8 3 3 8 11 11 11 9 6 5 3 1 2 9 11 7 2 2 2 4 2 3 3 3 5 5 3 4 4 3 9 7 1 1 2 2 1 2 2 4 6 4 4 5 5 4 3 4 4 5 6 7 7 7 8 8 7 9 9 8 6 7 7 8 9 6 8 14 22 28 31 33 36 38 39 40 41
10 7 8 11 8 9 13 15 13 9 6 5 4 5 9 10 11 14 12 9 7 5 2 5 12 14 9 2 4 4 5 4 4 5 4 4 5 1 2 3 0 3 3 2 1 1 1 1 2 2 3 4 3 2 3 5 4 3 2 5 4 5 6 4 5 7 6 8 10 8 7 6 6 6 8 6 5 13 14 17 23 28 33 37 37 39 41 43
10 8 9 9 6 6 8 10 8 5 3 4 5 6 8 9 12 14 13 10 6 4 5 9 12 11 8 4 2 5 7 7 8 11 11 10 9 6 4 3 3 4 2 1 1 2 1 1 2 3 3 3 2 4 3 3 6 4 3 5 3 4 4 3 4 4 2 5 8 5 4 5 6 8 8 3 8 14 13 14 20 27 34 38 37 38 42 45
13 10 8 6 4 4 6 8 7 4 3 4 7 9 9 11 16 15 10 9 10 12 11 9 9 9 7 6 6 10 16 17 18 20 20 19 19 16 14 13 9 5 3 2 1 0 1 1 1 3 2 3 4 6 4 5 7 3 5 5 6 5 4 4 6 5 4 5 3 0 2 7 7 7 6 5 7 10 11 13 20 27 33 37 41 42 44 46
Wind_Direction
353 352 350 348 345 341 339 339 337 336 336 335 332 331 331 334 336 334 331 327 324 327 329 335 341 345 348 344 338 337 341 339 310 292 260 258 264 245 262 311 310 311 316 315 288 237 216 204 190 193 216 212 211 214 205 205 204 191 189 207 213 214 206 186 183 198 188 231 247 254 262 260 275 281 290 304 287 276 216 165 169 174 183 183 175 166 161 165
349 348 347 346 343 339 339 338 336 333 332 332 330 329 329 329 329 331 331 325 323 324 323 328 334 340 346 343 335 332 337 339 331 318 252 245 229 140 65 5 348 336 325 302 250 213 185 171 164 158 230 225 215 212 207 207 204 196 184 207 218 213 195 188 190 203 207 230 254 260 264 266 267 276 286 295 301 338 90 134 146 139 151 165 163 163 164 169
346 346 344 343 338 336 336 335 336 333 330 330 328 328 328 327 327 329 330 327 324 322 320 324 328 333 341 341 334 329 333 335 332 8 137 165 130 87 13 359 349 340 336 296 240 208 179 163 156 131 313 253 226 213 210 205 203 209 204 215 225 207 197 199 197 203 212 227 250 264 268 270 264 270 278 275 308 348 95 131 129 130 144 157 161 164 168 171
344 343 342 340 336 336 335 332 331 329 329 328 326 325 324 324 324 325 326 326 325 322 319 319 322 326 332 337 332 326 334 335 306 113 69 128 334 326 332 344 335 330 337 309 237 199 202 191 161 3 303 268 245 228 223 207 202 212 204 220 221 196 211 208 204 209 215 225 238 256 270 272 266 268 279 287 298 300 172 175 162 154 158 162 165 169 172 173
343 341 339 336 335 336 334 331 329 327 327 325 324 322 321 321 318 315 317 321 323 322 319 315 315 316 319 326 325 323 337 343 174 93 343 300 304 309 317 329 324 319 326 324 173 162 183 213 296 317 258 249 252 237 239 221 217 247 227 231 222 199 210 209 212 215 217 224 236 249 257 263 267 272 281 288 273 242 226 206 189 177 171 170 171 171 172 173
343 340 338 336 335 334 332 331 329 327 327 326 324 322 321 319 315 312 310 313 316 318 320 317 313 311 311 314 316 320 329 310 280 308 311 308 304 304 312 317 317 317 321 273 190 75 24 354 336 281 215 220 244 236 266 243 227 249 253 238 227 219 215 212 216 217 221 224 231 241 243 256 269 278 273 273 271 267 288 258 200 185 178 172 171 169 170 174
341 338 336 335 333 332 332 332 330 330 330 329 326 324 322 318 315 313 311 309 307 310 315 315 315 312 307 306 307 307 286 268 287 297 306 324 307 304 309 312 311 303 317 250 207 22 356 346 349 297 220 216 258 243 270 267 246 241 253 251 238 231 228 225 226 221 222 224 229 237 242 255 263 268 265 254 266 273 301 307 208 184 176 171 170 172 174 177
340 337 336 335 333 333 331 331 331 331 331 330 328 325 323 321 319 314 310 307 304 304 307 310 312 310 310 312 314 308 292 280 285 306 333 328 315 313 311 315 312 265 265 58 348 360 346 343 358 345 295 254 281 260 266 274 265 250 246 260 255 243 237 236 241 242 238 234 233 237 243 250 250 256 265 254 259 265 283 339 204 177 171 172 172 174 175 175
340 338 337 335 333 332 330 330 328 328 329 328 327 324 322 322 320 316 311 307 304 299 303 307 307 307 310 313 326 326 298 248 159 306 330 338 325 318 317 325 326 269 258 345 316 331 335 335 348 349 332 297 289 273 276 265 265 286 278 275 267 258 249 235 236 243 246 248 241 241 245 246 250 254 267 262 259 259 242 190 188 173 171 174 173 175 174 172
339 337 337 335 334 332 330 330 327 327 327 324 322 320 321 321 317 316 313 311 307 302 303 303 306 308 306 308 338 327 262 186 171 208 216 216 248 284 314 327 325 302 278 274 271 310 330 330 332 332 316 300 299 283 285 268 305 324 323 315 296 282 270 242 230 233 238 247 241 236 246 248 254 257 267 260 257 255 209 176 185 173 174 178 176 178 176 174
339 337 337 335 334 332 332 331 328 327 324 322 319 316 319 318 316 313 310 309 306 307 303 304 311 305 305 308 263 252 236 212 214 216 230 240 230 241 265 284 305 306 294 282 256 273 309 315 328 332 326 324 324 307 297 308 332 332 328 327 307 292 281 260 240 229 227 241 239 234 246 254 259 254 253 255 255 254 181 166 186 179 179 183 179 181 181 180
341 339 338 337 335 334 333 330 327 326 323 320 316 315 317 315 313 309 307 308 304 303 299 302 307 295 303 278 248 258 264 248 246 232 230 233 229 230 236 241 259 274 287 292 266 257 282 299 327 333 328 330 329 312 309 324 333 329 329 326 297 302 282 263 254 238 223 226 234 235 249 251 248 241 246 250 253 259 196 167 181 185 185 186 183 183 185 184
341 340 340 339 337 335 332 328 326 324 320 317 314 314 314 310 306 303 305 306 300 297 296 297 295 299 300 264 267 291 290 263 249 238 233 231 231 231 236 242 249 256 267 281 271 259 264 285 316 317 317 321 312 295 307 320 326 321 320 252 284 300 269 252 251 248 238 223 222 222 241 242 236 237 241 246 251 260 243 188 183 188 187 186 186 185 188 189
340 339 340 338 336 334 330 327 324 322 318 317 317 315 310 304 300 301 303 298 293 291 293 292 291 303 269 271 295 320 281 256 236 243 241 233 236 239 242 244 251 266 274 277 279 274 263 277 307 308 309 304 302 310 313 319 324 323 299 266 227 243 252 252 239 234 239 228 211 202 232 238 232 238 238 241 249 257 259 226 186 189 190 186 188 187 189 192
340 340 339 338 336 333 329 327 325 323 320 320 320 316 308 302 298 296 289 281 280 280 288 294 286 279 265 282 307 58 152 290 219 351 342 240 246 245 242 241 248 267 281 284 293 300 279 279 296 300 301 300 312 324 332 331 323 322 244 243 208 219 262 287 252 223 225 229 205 196 231 238 228 236 238 237 243 249 255 249 191 184 191 188 188 189 189 191
342 342 340 339 337 334 330 329 328 325 324 326 324 320 316 307 295 284 275 272 267 262 293 325 298 262 265 288 335 76 348 356 360 360 25 22 335 262 231 221 242 255 269 275 274 288 282 268 277 281 287 304 325 2 5 340 316 296 215 230 227 223 236 272 270 232 217 229 209 208 224 234 229 231 236 236 236 240 247 254 219 176 190 193 188 191 189 188
344 344 342 340 338 335 333 332 332 330 332 337 334 342 351 324 307 302 281 253 219 207 244 348 332 269 257 270 289 349 343 342 340 317 261 355 15 333 199 213 247 249 254 267 263 263 250 241 250 261 265 246 154 95 50 281 262 267 236 251 270 247 225 229 272 252 212 218 223 225 226 228 245 219 220 224 232 238 239 250 243 178 187 196 189 192 190 185
345 344 342 341 339 338 338 338 338 340 349 355 358 26 41 25 16 2 315 192 186 200 253 221 183 276 260 253 275 332 342 336 329 260 220 234 185 171 181 211 242 238 250 278 263 240 228 230 195 208 277 191 185 148 185 221 218 228 223 277 283 254 250 232 247 251 210 221 230 233 232 227 246 250 214 211 221 234 236 242 246 202 182 191 188 190 189 186
343 343 342 341 341 341 343 344 349 2 10 16 31 60 48 34 45 45 40 240 237 243 272 221 196 237 265 258 285 312 323 321 318 289 247 231 204 191 187 205 234 231 237 10 290 224 196 208 178 189 248 214 204 196 206 222 205 253 261 232 241 235 246 245 246 251 229 232 233 233 238 224 228 246 243 226 216 228 237 239 242 212 179 184 186 188 188 188
344 344 344 343 343 344 349 354 9 26 23 27 40 56 34 18 26 35 335 298 275 267 271 258 237 249 263 268 275 289 300 300 306 296 260 239 211 194 196 205 228 231 193 131 260 231 181 178 228 213 224 218 214 218 225 259 313 305 297 264 262 259 252 246 242 247 240 243 238 232 240 232 225 227 234 245 234 226 237 238 239 214 181 182 185 186 190 190
345 345 346 345 344 347 356 7 27 37 31 31 33 38 38 18 7 322 320 303 288 278 268 265 254 251 262 270 272 280 291 291 292 287 268 244 213 193 194 193 199 231 218 180 185 254 190 181 224 220 223 220 217 239 248 270 276 273 280 282 275 266 265 266 261 253 239 243 247 228 233 232 228 227 223 237 242 235 230 230 237 221 186 185 188 186 190 192
345 345 347 347 346 351 1 14 23 33 38 36 31 37 35 10 344 314 318 305 298 293 273 266 259 252 260 268 269 274 277 278 282 279 269 244 213 194 183 179 183 206 203 176 184 265 253 225 235 225 214 213 225 243 245 252 253 250 255 267 269 265 282 284 278 272 250 239 248 230 228 231 227 227 221 224 232 237 233 226 234 232 200 186 190 189 188 188
344 346 348 347 349 356 4 11 16 35 48 41 32 32 21 350 328 313 313 303 300 303 289 270 256 248 254 260 264 261 252 256 271 272 261 233 207 194 184 175 186 203 186 173 179 209 243 241 247 225 190 205 226 234 231 246 252 243 240 238 252 261 266 272 273 275 270 253 251 241 234 237 228 228 225 221 224 232 238 233 231 236 226 203 194 191 185 182
343 344 346 345 349 359 6 10 18 47 54 44 33 22 4 340 328 317 317 306 292 304 319 309 257 245 249 257 261 240 235 237 247 262 258 233 215 199 194 187 185 199 186 188 190 206 240 252 273 138 188 207 222 231 221 230 249 243 242 236 244 254 250 262 281 286 297 282 251 240 250 248 220 220 223 222 221 228 235 234 226 227 232 220 198 191 187 184
341 342 344 343 347 359 11 19 24 62 59 41 18 351 336 328 321 321 327 320 271 295 339 24 202 232 257 271 254 230 237 239 234 244 248 237 226 206 202 198 192 206 190 194 204 213 242 253 253 233 223 215 218 229 219 213 243 249 242 238 244 255 256 265 272 277 305 291 251 220 234 251 230 221 220 216 215 224 231 233 228 222 225 220 195 188 189 187
340 340 344 341 344 359 17 33 32 70 71 12 346 326 316 317 313 317 330 2 292 288 348 35 206 208 296 264 248 234 244 256 234 240 244 243 240 235 225 198 186 206 190 187 213 224 242 241 233 230 236 232 221 227 222 210 229 250 238 238 244 251 255 258 261 262 252 273 285 258 237 256 267 227 216 210 212 220 225 231 234 227 223 218 198 187 187 188
339 339 345 339 340 358 17 33 26 9 324 324 330 322 315 321 317 314 330 65 351 284 192 233 204 190 205 232 258 196 228 314 304 253 243 243 241 236 229 200 186 198 175 168 221 212 219 223 223 228 230 233 230 227 216 206 220 244 234 239 246 245 245 249 253 256 256 293 306 290 263 252 250 228 208 204 213 220 221 225 231 230 224 218 206 194 189 190
338 339 348 339 332 351 7 20 18 1 341 327 329 324 319 328 321 315 44 86 4 342 171 234 221 224 223 266 301 262 273 299 305 263 242 239 235 225 216 205 195 179 145 160 229 214 156 195 209 227 228 225 229 222 204 202 218 235 230 239 251 252 251 252 253 252 263 296 292 278 270 247 240 231 197 199 210 217 217 217 220 225 225 221 215 206 196 192
338 339 350 336 324 342 351 358 4 359 350 336 332 326 322 326 320 334 94 85 341 342 215 309 270 263 281 305 302 288 280 265 242 253 255 254 247 225 218 210 192 169 95 128 241 272 244 236 229 212 212 212 223 224 202 201 223 233 227 237 259 269 266 260 253 243 246 253 256 259 256 243 252 235 196 203 209 213 214 214 214 216 220 222 219 207 196 192
338 337 348 331 318 340 340 339 352 351 345 340 335 329 325 321 324 66 53 338 359 354 293 296 287 311 321 318 292 275 264 236 243 281 283 266 267 248 204 193 169 120 7 163 242 256 262 275 277 253 231 221 210 227 221 214 253 268 238 233 254 264 267 274 257 213 222 241 247 252 245 237 267 241 207 209 206 207 207 208 214 215 217 220 217 204 194 190
336 331 342 329 315 337 336 336 345 343 341 338 331 330 329 325 80 78 19 282 287 321 332 312 297 317 317 311 296 276 254 231 237 277 253 238 254 262 90 140 140 135 255 216 236 249 252 265 269 261 258 243 200 219 244 240 270 290 251 216 233 253 256 269 247 182 207 239 239 245 244 235 245 240 227 222 200 198 204 204 206 209 217 218 211 200 194 189
334 320 324 327 319 335 342 336 330 337 343 335 328 332 346 41 37 107 247 319 307 300 333 297 287 299 296 300 289 272 266 242 187 194 216 187 204 220 159 173 158 149 232 220 233 248 238 246 249 255 257 238 198 208 248 261 252 258 250 212 205 229 226 227 219 191 217 238 237 238 239 238 243 240 231 228 204 196 201 203 202 204 214 215 204 195 192 187
329 304 289 301 319 337 341 325 318 343 351 334 332 341 36 77 5 252 267 318 260 239 264 248 259 280 295 303 279 261 272 249 193 195 211 159 189 244 211 205 189 172 208 207 215 237 264 276 253 246 244 211 197 193 206 229 218 220 227 211 202 199 205 204 194 211 223 232 243 239 232 247 260 245 211 211 206 200 197 198 204 210 213 212 201 192 188 185
322 292 277 284 308 337 333 310 317 348 344 326 341 11 53 60 283 266 286 261 246 289 270 254 285 292 293 278 250 194 81 242 210 179 159 121 181 260 242 229 217 211 183 165 192 198 237 280 236 222 209 182 196 206 198 202 220 227 223 218 223 216 218 204 190 218 225 224 240 233 221 228 241 227 205 199 200 200 197 198 204 212 214 209 198 190 185 183
317 282 282 284 286 321 319 294 311 347 331 315 360 56 43 2 270 280 281 250 281 301 271 273 286 297 296 257 236 104 149 222 197 143 116 154 183 212 214 215 211 205 167 167 212 180 211 251 229 221 211 182 195 208 198 201 232 237 227 227 230 222 233 253 227 220 182 186 241 223 211 233 236 230 205 193 196 198 200 200 203 211 211 200 190 185 181 180
320 277 289 287 263 293 305 289 304 337 308 314 40 40 264 218 234 246 265 266 278 281 294 295 263 255 291 268 346 30 179 216 212 147 192 207 205 209 207 208 201 197 185 186 208 156 206 246 211 210 227 207 207 207 192 194 212 218 210 225 235 227 231 261 274 248 154 185 248 222 214 249 262 258 211 192 197 198 199 201 203 207 197 183 181 181 178 178
336 281 290 288 260 257 278 286 298 297 279 37 60 272 239 232 241 222 235 262 265 259 303 308 237 156 282 278 322 299 172 199 244 195 195 210 223 214 207 212 201 200 201 197 209 202 204 256 233 207 243 239 226 220 202 197 205 203 194 217 234 237 237 246 279 286 180 197 254 231 210 217 227 258 228 196 198 199 201 201 202 199 181 172 179 179 177 178
357 322 295 293 289 261 263 274 261 225 244 61 306 264 240 234 236 223 232 245 250 177 217 273 235 138 253 270 295 269 202 213 244 220 204 212 237 210 196 204 204 203 204 198 206 222 184 259 260 212 237 246 223 216 207 198 203 212 220 218 185 210 233 228 245 269 231 212 266 255 217 203 207 233 226 205 203 201 202 202 199 192 175 172 179 178 176 177
360 347 345 344 323 284 252 236 213 211 270 59 257 261 247 243 253 260 260 246 181 166 211 244 228 220 251 226 272 284 233 236 245 223 202 198 222 211 191 195 202 202 203 198 195 171 155 245 272 185 238 258 199 190 205 194 197 210 229 234 180 193 235 211 215 247 243 209 239 253 235 221 221 213 200 206 210 206 201 199 199 189 176 176 177 176 174 173
2 355 6 332 300 253 219 203 193 178 139 225 225 253 272 269 274 274 263 227 187 198 219 247 223 240 273 245 262 282 263 262 254 233 220 196 216 233 197 197 204 194 192 187 171 99 112 209 253 232 295 274 199 189 197 192 190 199 214 221 211 220 236 229 232 243 243 225 215 228 241 248 239 206 194 198 206 209 197 189 197 185 175 178 177 173 173 173
14 18 327 286 246 228 224 203 213 212 196 243 226 243 277 265 272 287 271 232 228 223 219 247 241 245 279 274 277 288 283 280 259 247 240 201 218 248 199 199 193 151 150 156 153 172 152 189 240 263 280 243 236 192 183 190 196 187 199 212 211 216 220 242 267 252 234 238 212 192 235 262 241 198 196 197 199 206 192 178 188 181 174 177 177 174 173 174
12 23 223 233 231 244 261 242 254 228 192 267 260 254 285 287 282 299 294 239 230 221 219 243 245 244 254 251 264 282 277 278 257 236 251 242 227 223 212 205 182 150 142 169 186 180 174 192 245 256 246 209 247 235 185 180 181 185 208 213 210 229 224 217 254 294 287 272 255 191 246 271 245 195 196 204 198 195 184 175 177 176 174 175 176 175 174 175
359 2 202 223 231 248 280 299 302 258 232 292 294 286 298 301 287 296 307 272 239 200 214 240 240 239 233 218 236 276 278 276 256 230 269 294 238 244 332 253 179 158 145 165 175 168 174 219 243 255 266 186 223 238 189 145 126 173 218 215 213 233 237 234 257 297 311 290 280 274 265 268 268 227 204 210 201 186 181 178 173 168 170 171 172 173 173 173
349 358 68 213 225 238 274 260 289 303 295 308 313 306 303 293 278 291 298 280 268 205 209 254 234 238 257 246 237 253 270 276 273 269 281 286 271 317 340 345 181 163 160 177 173 166 178 212 224 261 15 76 176 179 154 138 141 182 215 229 235 242 257 274 275 262 262 258 241 237 254 253 271 293 255 203 182 181 188 182 171 162 162 167 168 169 170 171
351 9 47 197 215 227 247 245 268 300 307 318 315 306 304 295 299 304 284 239 252 221 213 258 232 241 267 276 268 263 259 244 253 304 304 282 302 311 311 312 313 261 183 181 171 161 179 215 196 159 87 93 137 155 153 160 167 185 221 231 238 249 257 265 278 263 259 272 250 227 247 263 292 325 310 198 171 179 195 183 168 159 158 163 165 166 167 170
7 13 4 315 219 231 253 265 289 311 305 322 313 300 313 316 312 309 281 239 255 236 230 250 278 283 269 270 289 281 262 230 232 288 308 289 300 291 282 293 299 259 187 177 167 158 171 240 215 204 153 146 179 208 263 220 148 187 220 229 245 256 252 253 263 254 257 301 293 251 250 280 301 329 317 240 184 174 178 170 157 153 156 160 163 165 168 172
25 47 14 352 291 267 265 270 306 331 303 312 304 289 318 323 321 326 313 273 276 272 258 239 223 253 267 289 312 291 281 257 233 263 283 266 252 267 281 291 285 197 171 168 167 162 36 301 248 245 207 224 219 219 242 230 171 189 208 234 268 265 268 268 253 245 260 305 284 274 298 284 267 295 310 268 214 178 168 160 153 152 156 160 163 166 170 174
30 25 58 12 322 290 305 305 316 319 308 307 293 283 326 333 334 337 326 296 306 10 346 282 261 261 268 290 318 279 289 304 257 252 265 262 270 290 292 298 200 148 150 158 173 164 100 219 253 292 297 275 242 215 222 213 193 179 164 194 255 267 281 272 251 257 276 267 258 282 322 305 260 280 297 268 238 195 169 159 155 154 156 159 161 165 169 173
24 360 329 343 322 279 294 301 300 301 300 305 312 328 339 339 332 331 326 315 322 335 109 301 313 318 318 310 150 242 283 304 289 278 265 275 290 301 300 320 106 139 148 154 232 163 118 225 260 310 306 287 255 214 210 204 197 157 147 200 236 257 268 259 260 279 289 281 273 289 315 296 263 270 284 277 241 177 157 151 150 150 153 156 159 163 168 172
27 13 331 328 316 281 289 298 294 288 297 329 352 347 340 333 328 330 323 307 312 324 333 316 313 316 322 323 165 212 245 234 251 264 258 291 308 300 248 288 311 145 161 157 239 303 80 274 287 11 330 292 287 276 228 190 147 115 174 225 238 275 284 283 290 293 303 297 285 297 319 300 278 284 292 286 156 138 136 141 146 150 154 156 160 165 169 174
33 21 343 329 314 292 306 313 307 297 321 6 1 341 336 326 322 326 316 295 296 310 309 310 308 307 314 315 211 231 266 263 249 247 242 246 258 255 254 277 321 342 330 147 31 356 55 315 312 40 25 287 305 350 330 110 88 61 272 249 245 271 277 280 287 290 296 282 285 322 338 291 294 310 313 337 122 134 139 145 150 154 157 159 162 168 172 176
19 16 12 351 303 308 342 331 322 327 344 356 345 332 323 314 317 326 324 312 318 322 315 302 301 311 322 328 314 304 306 298 279 270 263 252 249 250 256 263 269 280 265 176 99 308 131 94 342 39 28 273 303 345 353 72 63 354 265 225 205 227 261 288 290 273 217 227 257 90 230 259 291 312 328 33 97 132 140 147 154 157 161 164 166 171 175 178